{"data":{"norad_id":53922,"intl_designator":"2022-119AN","name":"STARLINK-5002","alt_names":[],"object_type":"PAYLOAD","status":"ACTIVE","operator":null,"country":"US","launch_date":"2022-09-24","launch_site_code":"AFETR","launch_vehicle":null,"mission":null,"orbit_class":"UNKNOWN","rcs_meters":null,"size_class":null,"mass_kg":null,"dimensions":null,"purposes":["comms"],"wikipedia_slug":null,"has_3d_model":false,"image_url":null,"decayed_at":null,"tle_current":{"epoch":"2026-05-24T20:01:11.400672Z","epoch_age_seconds":82758,"freshness":"FRESH","line1":"1 53922U 22119AN  26144.83415973  .00000603  00000+0  55980-4 0  9992","line2":"2 53922  53.2129 332.0439 0001492  91.8689 268.2474 15.08841341203324","mean_motion":15.08841341,"eccentricity":0.0001492,"inclination_deg":53.2129,"raan_deg":332.0439,"arg_perigee_deg":91.8689,"mean_anomaly_deg":268.2474,"bstar":5.598e-5,"rev_number":20332,"period_min":95.437469856547,"perigee_km":538.70714292414,"apogee_km":540.77143720909,"semimajor_km":6917.8762900666,"source":"CELESTRAK","updated_at":"2026-05-25T13:38:17.613479Z"}}}